• In Spain
  • List of Countries
  • For 7 days
  • Water Temperature
  • Satellite Maps
  • Weather Map
  • Weather Widgets
  • user-avatar
    Login

    Hourly Weather Batina

    Today, 17 August, Friday

    Time Temperature Precipitation Wind Pressure Humidity
    00:00 +25°C° 0 mm 1 mps 672 mmHg 52%
    01:00 +25°C° 0 mm 1 mps 672 mmHg 54%
    02:00 +24°C° 0 mm 1 mps 672 mmHg 55%
    03:00 +24°C° 0 mm 1 mps 672 mmHg 57%
    04:00 +24°C° 0.1 mm 1 mps 672 mmHg 56%
    05:00 +24°C° 0.1 mm 1 mps 672 mmHg 55%
    06:00 +25°C° 0 mm 1 mps 672 mmHg 54%
    07:00 +25°C° 0.1 mm 2 mps 673 mmHg 51%
    08:00 +26°C° 0.1 mm 2 mps 673 mmHg 48%
    09:00 +27°C° 0.1 mm 2 mps 673 mmHg 45%
    10:00 +28°C° 0.2 mm 3 mps 674 mmHg 43%
    11:00 +28°C° 0.2 mm 4 mps 674 mmHg 40%
    12:00 +29°C° 0.2 mm 4 mps 674 mmHg 37%
    13:00 +29°C° 1.1 mm 4 mps 674 mmHg 40%
    14:00 +28°C° 1.1 mm 4 mps 673 mmHg 42%
    15:00 +27°C° 1.1 mm 4 mps 673 mmHg 44%
    16:00 +27°C° 0.3 mm 3 mps 673 mmHg 44%
    17:00 +27°C° 0.3 mm 3 mps 673 mmHg 43%
    18:00 +27°C° 0.3 mm 2 mps 673 mmHg 42%
    19:00 +27°C° 1 mm 3 mps 673 mmHg 46%
    20:00 +26°C° 1 mm 3 mps 673 mmHg 49%
    21:00 +25°C° 1 mm 3 mps 673 mmHg 53%
    22:00 +24°C° 0.6 mm 3 mps 673 mmHg 55%
    23:00 +24°C° 0.6 mm 3 mps 673 mmHg 57%

    Tomorrow, 18 August, Saturday

    Time Temperature Precipitation Wind Pressure Humidity
    00:00 +22°C° 0.6 mm 3 mps 673 mmHg 60%
    01:00 +22°C° 0.2 mm 3 mps 673 mmHg 61%
    02:00 +21°C° 0.2 mm 2 mps 672 mmHg 62%
    03:00 +21°C° 0.2 mm 2 mps 672 mmHg 63%
    04:00 +21°C° 0.1 mm 2 mps 672 mmHg 62%
    05:00 +22°C° 0.1 mm 1 mps 673 mmHg 61%
    06:00 +23°C° 0.1 mm 1 mps 673 mmHg 60%
    07:00 +24°C° 0 mm 2 mps 673 mmHg 55%
    08:00 +25°C° 0 mm 2 mps 674 mmHg 51%
    09:00 +26°C° 0 mm 2 mps 675 mmHg 46%
    10:00 +27°C° 0 mm 2 mps 675 mmHg 42%
    11:00 +29°C° 0 mm 3 mps 675 mmHg 39%
    12:00 +30°C° 0 mm 3 mps 675 mmHg 35%
    13:00 +30°C° 0 mm 3 mps 674 mmHg 33%
    14:00 +30°C° 0 mm 3 mps 674 mmHg 32%
    15:00 +31°C° 0 mm 3 mps 674 mmHg 30%
    16:00 +30°C° 0.3 mm 3 mps 674 mmHg 34%
    17:00 +29°C° 0.3 mm 4 mps 674 mmHg 37%
    18:00 +29°C° 0.3 mm 4 mps 674 mmHg 40%
    19:00 +28°C° 0.2 mm 3 mps 674 mmHg 44%
    20:00 +27°C° 0.2 mm 3 mps 674 mmHg 49%
    21:00 +26°C° 0.2 mm 2 mps 674 mmHg 53%
    22:00 +26°C° 0.2 mm 2 mps 674 mmHg 56%
    23:00 +25°C° 0.2 mm 2 mps 674 mmHg 59%

    Day after tomorrow, 19 August, Sunday

    Time Temperature Precipitation Wind Pressure Humidity
    00:00 +25°C° 0.2 mm 2 mps 674 mmHg 62%
    01:00 +24°C° 0.1 mm 2 mps 674 mmHg 63%
    02:00 +24°C° 0.1 mm 2 mps 673 mmHg 65%
    03:00 +23°C° 0.1 mm 2 mps 673 mmHg 66%
    04:00 +23°C° 0.1 mm 2 mps 673 mmHg 67%
    05:00 +23°C° 0.1 mm 1 mps 673 mmHg 67%
    06:00 +23°C° 0.1 mm 1 mps 674 mmHg 67%
    07:00 +25°C° 0.3 mm 2 mps 674 mmHg 61%
    08:00 +26°C° 0.3 mm 2 mps 674 mmHg 55%
    09:00 +27°C° 0.3 mm 2 mps 675 mmHg 48%
    10:00 +28°C° 0.4 mm 3 mps 675 mmHg 45%
    11:00 +29°C° 0.4 mm 4 mps 675 mmHg 42%
    12:00 +30°C° 0.4 mm 4 mps 675 mmHg 39%
    13:00 +30°C° 0.9 mm 4 mps 675 mmHg 40%
    14:00 +29°C° 0.9 mm 4 mps 674 mmHg 41%
    15:00 +29°C° 0.9 mm 4 mps 674 mmHg 43%
    16:00 +29°C° 0.9 mm 4 mps 673 mmHg 44%
    17:00 +28°C° 0.9 mm 4 mps 673 mmHg 46%
    18:00 +28°C° 0.9 mm 4 mps 673 mmHg 48%
    19:00 +27°C° 0.3 mm 3 mps 673 mmHg 52%
    20:00 +26°C° 0.3 mm 3 mps 673 mmHg 56%
    21:00 +25°C° 0.3 mm 3 mps 674 mmHg 60%
    22:00 +25°C° 0.2 mm 3 mps 673 mmHg 62%
    23:00 +24°C° 0.2 mm 2 mps 673 mmHg 64%

    20 August, Monday

    Time Temperature Precipitation Wind Pressure Humidity
    00:00 +24°C° 0.2 mm 2 mps 673 mmHg 66%
    01:00 +23°C° 0.4 mm 2 mps 672 mmHg 68%
    02:00 +23°C° 0.4 mm 2 mps 672 mmHg 70%
    03:00 +21°C° 0.4 mm 2 mps 672 mmHg 73%
    04:00 +21°C° 0.1 mm 2 mps 672 mmHg 73%
    05:00 +21°C° 0.1 mm 2 mps 672 mmHg 74%
    06:00 +21°C° 0.1 mm 2 mps 672 mmHg 75%
    07:00 +23°C° 0.1 mm 2 mps 672 mmHg 69%
    08:00 +24°C° 0.1 mm 2 mps 673 mmHg 64%
    09:00 +25°C° 0.1 mm 3 mps 673 mmHg 58%
    10:00 +25°C° 0.3 mm 2 mps 673 mmHg 53%
    11:00 +26°C° 0.3 mm 2 mps 673 mmHg 47%
    12:00 +27°C° 0.3 mm 2 mps 673 mmHg 42%
    13:00 +27°C° 0.2 mm 2 mps 673 mmHg 38%
    14:00 +28°C° 0.2 mm 3 mps 673 mmHg 35%
    15:00 +28°C° 0.2 mm 3 mps 673 mmHg 31%
    16:00 +28°C° 0 mm 3 mps 673 mmHg 32%
    17:00 +27°C° 0 mm 4 mps 673 mmHg 32%
    18:00 +27°C° 0 mm 4 mps 672 mmHg 32%
    19:00 +26°C° 0 mm 4 mps 673 mmHg 38%
    20:00 +25°C° 0 mm 4 mps 673 mmHg 44%
    21:00 +24°C° 0 mm 3 mps 673 mmHg 50%
    22:00 +24°C° 0 mm 3 mps 673 mmHg 53%
    23:00 +22°C° 0 mm 3 mps 672 mmHg 57%

    21 August, Tuesday

    Time Temperature Precipitation Wind Pressure Humidity
    00:00 +21°C° 0 mm 3 mps 672 mmHg 61%
    01:00 +21°C° 0 mm 2 mps 672 mmHg 63%
    02:00 +21°C° 0 mm 2 mps 672 mmHg 65%
    03:00 +20°C° 0 mm 2 mps 672 mmHg 66%
    04:00 +21°C° 0 mm 1 mps 672 mmHg 66%
    05:00 +21°C° 0 mm 1 mps 672 mmHg 65%
    06:00 +21°C° 0 mm 1 mps 673 mmHg 64%
    07:00 +22°C° 0 mm 1 mps 673 mmHg 57%
    08:00 +23°C° 0 mm 1 mps 673 mmHg 50%
    09:00 +24°C° 0 mm 1 mps 674 mmHg 43%
    10:00 +25°C° 0.1 mm 2 mps 674 mmHg 40%
    11:00 +26°C° 0.1 mm 2 mps 674 mmHg 36%
    12:00 +27°C° 0.1 mm 3 mps 674 mmHg 32%
    13:00 +28°C° 0.1 mm 3 mps 674 mmHg 31%
    14:00 +28°C° 0.1 mm 3 mps 674 mmHg 29%
    15:00 +29°C° 0.1 mm 3 mps 673 mmHg 28%
    16:00 +29°C° 0 mm 3 mps 673 mmHg 29%
    17:00 +28°C° 0 mm 3 mps 673 mmHg 30%
    18:00 +28°C° 0 mm 3 mps 673 mmHg 31%
    19:00 +27°C° 0 mm 3 mps 673 mmHg 36%
    20:00 +26°C° 0 mm 3 mps 673 mmHg 42%
    21:00 +25°C° 0 mm 2 mps 673 mmHg 47%
    22:00 +25°C° 0 mm 2 mps 673 mmHg 51%
    23:00 +24°C° 0 mm 2 mps 673 mmHg 55%

    22 August, Wednesday

    Time Temperature Precipitation Wind Pressure Humidity
    00:00 +24°C° 0 mm 2 mps 673 mmHg 58%
    01:00 +23°C° 0 mm 1 mps 673 mmHg 60%
    02:00 +23°C° 0 mm 1 mps 673 mmHg 62%
    03:00 +23°C° 0 mm 1 mps 673 mmHg 63%
    04:00 +23°C° 0 mm 1 mps 673 mmHg 61%
    05:00 +23°C° 0 mm 1 mps 673 mmHg 60%
    06:00 +23°C° 0 mm 1 mps 673 mmHg 58%
    07:00 +25°C° 0 mm 2 mps 673 mmHg 52%
    08:00 +26°C° 0 mm 3 mps 674 mmHg 46%
    09:00 +27°C° 0 mm 3 mps 674 mmHg 41%
    10:00 +28°C° 0 mm 4 mps 674 mmHg 38%
    11:00 +29°C° 0 mm 4 mps 674 mmHg 36%
    12:00 +30°C° 0 mm 4 mps 674 mmHg 34%
    13:00 +30°C° 0 mm 4 mps 674 mmHg 33%
    14:00 +30°C° 0 mm 4 mps 674 mmHg 32%
    15:00 +30°C° 0 mm 4 mps 674 mmHg 31%
    16:00 +30°C° 0 mm 3 mps 674 mmHg 32%
    17:00 +30°C° 0 mm 3 mps 674 mmHg 34%
    18:00 +29°C° 0 mm 3 mps 674 mmHg 35%
    19:00 +29°C° 0.1 mm 2 mps 674 mmHg 37%
    20:00 +28°C° 0.1 mm 2 mps 674 mmHg 39%
    21:00 +28°C° 0.1 mm 1 mps 674 mmHg 41%
    22:00 +27°C° 0.2 mm 1 mps 673 mmHg 43%
    23:00 +26°C° 0.2 mm 1 mps 673 mmHg 46%
    Show more